Weather History for Columbia Airport, CA

Change the Weather History Date:

Friday, October 4, 2013

  Actual Average (KMOD) Record (KMOD)
Temperature  
Mean Temperature 57 °F -  
Max Temperature 75 °F 84 °F 100 °F (1980)
Min Temperature 39 °F 56 °F 39 °F (1931)
Degree Days  
Heating Degree Days 8 1  
Month to date heating degree days 1  
Since 1 July heating degree days 4  
Cooling Degree Days 0 5  
Month to date cooling degree days 22  
Year to date cooling degree days 1634  
Growing Degree Days 7 (Base 50)    
Moisture  
Dew Point 23 °F    
Average Humidity 30    
Maximum Humidity 52    
Minimum Humidity 14    
Precipitation  
Precipitation 0.00 in 0.01 in 0.46 in (2008)
Month to date precipitation 0.05  
Year to date precipitation 9.08  
Since 1 July precipitation 0.33  
Snow  
Snow 0.00 in - - ()
Month to date snowfall  
Since 1 July snowfall  
Since 1 September snowfall  
Snow Depth -    
Sea Level Pressure  
Sea Level Pressure 30.07 in    
Wind  
Wind Speed 1 mph (WSW)    
Max Wind Speed 8 mph    
Max Gust Speed -    
Visibility 10 miles    
Events      
T = Trace of Precipitation, MM = Missing Value Source: NWS Daily Summary

Daily Weather History Graph

Daily Weather History Graph

Search for Another Location

Airport:

Trip Planner

Search our weather history database for the weather conditions in past years. The results will help you decide how hot, cold, wet, or windy it might be!

Date:

Astronomy

Oct. 04, 2013 Rise Set
Actual Time 7:00 AM PDT 6:39 PM PDT
Civil Twilight 6:34 AM PDT 7:05 PM PDT
Nautical Twilight 6:03 AM PDT 7:36 PM PDT
Astronomical Twilight 5:32 AM PDT 8:06 PM PDT
Moon 6:41 AM PDT (10/4) 6:25 PM PDT (10/4)
Length of Visible Light 12h 31m
Length of Day
11h 39m
Waning Crescent, 0% of the Moon is Illuminated
Oct 4
Waning Crescent
Oct 4
New
Oct 11
First Quarter
Oct 18
Full
Oct 26
Last Quarter

Hourly Weather History & Observations

Time (PDT) Temp. Dew Point Humidity Pressure Visibility Wind Dir Wind Speed Gust Speed Precip Events Conditions
12:15 AM 50.0 °F 19.4 °F 30% 29.95 in 10.0 mi Calm Calm - N/A   Clear
12:35 AM 53.6 °F 15.8 °F 22% 29.96 in 10.0 mi Calm Calm - N/A   Clear
12:55 AM 53.6 °F 14.0 °F 21% 29.96 in 10.0 mi Calm Calm - N/A   Clear
1:15 AM 59.0 °F 12.2 °F 16% 29.96 in 10.0 mi Calm Calm - N/A   Clear
1:35 AM 59.0 °F 12.2 °F 16% 29.97 in 10.0 mi NNE 4.6 mph - N/A   Clear
1:55 AM 57.2 °F 12.2 °F 17% 29.97 in 10.0 mi Calm Calm - N/A   Clear
2:15 AM 55.4 °F 14.0 °F 20% 29.97 in 10.0 mi Calm Calm - N/A   Clear
2:35 AM 53.6 °F 15.8 °F 22% 29.98 in 10.0 mi Calm Calm - N/A   Clear
2:55 AM 50.0 °F 17.6 °F 28% 29.98 in 10.0 mi Calm Calm - N/A   Clear
3:15 AM 48.2 °F 15.8 °F 27% 29.98 in 10.0 mi Calm Calm - N/A   Clear
3:35 AM 46.4 °F 17.6 °F 32% 29.98 in 10.0 mi Calm Calm - N/A   Clear
3:55 AM 44.6 °F 19.4 °F 37% 29.98 in 10.0 mi Calm Calm - N/A   Clear
4:15 AM 41.0 °F 19.4 °F 42% 29.98 in 10.0 mi Calm Calm - N/A   Clear
4:35 AM 41.0 °F 21.2 °F 45% 29.98 in 10.0 mi Calm Calm - N/A   Clear
4:55 AM 41.0 °F 21.2 °F 45% 29.99 in 10.0 mi Calm Calm - N/A   Clear
5:15 AM 39.2 °F 21.2 °F 49% 29.99 in 10.0 mi Calm Calm - N/A   Clear
5:35 AM 41.0 °F 21.2 °F 45% 30.00 in 10.0 mi Calm Calm - N/A   Clear
5:55 AM 39.2 °F 21.2 °F 49% 30.01 in 10.0 mi Calm Calm - N/A   Clear
6:15 AM 39.2 °F 19.4 °F 45% 30.01 in 10.0 mi Calm Calm - N/A   Clear
6:35 AM 39.2 °F 23.0 °F 52% 30.02 in 10.0 mi Calm Calm - N/A   Clear
6:55 AM 39.2 °F 21.2 °F 49% 30.03 in 10.0 mi Calm Calm - N/A   Clear
7:15 AM 39.2 °F 23.0 °F 52% 30.03 in 10.0 mi Calm Calm - N/A   Clear
7:35 AM 39.2 °F 23.0 °F 52% 30.03 in 10.0 mi Calm Calm - N/A   Clear
7:55 AM 42.8 °F 23.0 °F 46% 30.04 in 10.0 mi Calm Calm - N/A   Clear
8:15 AM 46.4 °F 23.0 °F 40% 30.05 in 10.0 mi Calm Calm - N/A   Clear
8:35 AM 51.8 °F 26.6 °F 38% 30.05 in 10.0 mi Calm Calm - N/A   Clear
8:55 AM 55.4 °F 23.0 °F 29% 30.06 in 10.0 mi Calm Calm - N/A   Clear
9:15 AM 62.6 °F 24.8 °F 24% 30.07 in 10.0 mi Calm Calm - N/A   Clear
9:35 AM 62.6 °F 21.2 °F 20% 30.08 in 10.0 mi South 4.6 mph - N/A   Clear
9:55 AM 62.6 °F 19.4 °F 19% 30.09 in 10.0 mi South 4.6 mph - N/A   Clear
10:15 AM 64.4 °F 19.4 °F 18% 30.09 in 10.0 mi Calm Calm - N/A   Clear
10:35 AM 66.2 °F 19.4 °F 17% 30.10 in 10.0 mi South 3.5 mph - N/A   Clear
10:55 AM 66.2 °F 23.0 °F 19% 30.10 in 10.0 mi SSW 3.5 mph - N/A   Clear
11:15 AM 68.0 °F 23.0 °F 18% 30.11 in 10.0 mi Calm Calm - N/A   Clear
11:35 AM 68.0 °F 23.0 °F 18% 30.11 in 10.0 mi Calm Calm - N/A   Clear
11:55 AM 71.6 °F 23.0 °F 16% 30.11 in 10.0 mi WSW 3.5 mph - N/A   Clear
12:15 PM 71.6 °F 23.0 °F 16% 30.11 in 10.0 mi West 5.8 mph - N/A   Clear
12:35 PM 71.6 °F 23.0 °F 16% 30.11 in 10.0 mi WSW 5.8 mph - N/A   Clear
12:55 PM 73.4 °F 23.0 °F 15% 30.11 in 10.0 mi Calm Calm - N/A   Clear
1:15 PM 71.6 °F 23.0 °F 16% 30.10 in 10.0 mi Calm Calm - N/A   Clear
1:35 PM 73.4 °F 23.0 °F 15% 30.10 in 10.0 mi SW 4.6 mph - N/A   Clear
1:55 PM 75.2 °F 23.0 °F 14% 30.09 in 10.0 mi SSW 3.5 mph - N/A   Clear
2:15 PM 75.2 °F 24.8 °F 15% 30.09 in 10.0 mi WSW 5.8 mph - N/A   Clear
2:35 PM 75.2 °F 24.8 °F 15% 30.09 in 10.0 mi West 8.1 mph - N/A   Clear
2:55 PM 73.4 °F 26.6 °F 18% 30.09 in 10.0 mi SW 4.6 mph - N/A   Clear
3:15 PM 75.2 °F 26.6 °F 17% 30.09 in 10.0 mi West 6.9 mph - N/A   Clear
3:35 PM 75.2 °F 26.6 °F 17% 30.09 in 10.0 mi WSW 6.9 mph - N/A   Clear
3:55 PM 73.4 °F 24.8 °F 16% 30.09 in 10.0 mi SW 4.6 mph - N/A   Clear
4:15 PM 75.2 °F 24.8 °F 15% 30.09 in 10.0 mi SSW 3.5 mph - N/A   Clear
4:35 PM 75.2 °F 24.8 °F 15% 30.09 in 10.0 mi WSW 5.8 mph - N/A   Clear
4:55 PM 73.4 °F 23.0 °F 15% 30.10 in 10.0 mi WNW 4.6 mph - N/A   Clear
5:15 PM 73.4 °F 23.0 °F 15% 30.10 in 10.0 mi WSW 3.5 mph - N/A   Clear
5:35 PM 73.4 °F 23.0 °F 15% 30.10 in 10.0 mi West 4.6 mph - N/A   Clear
5:55 PM 71.6 °F 23.0 °F 16% 30.10 in 10.0 mi West 4.6 mph - N/A   Clear
6:15 PM 69.8 °F 24.8 °F 18% 30.10 in 10.0 mi Calm Calm - N/A   Clear
6:35 PM 64.4 °F 24.8 °F 22% 30.11 in 10.0 mi Calm Calm - N/A   Clear
6:55 PM 60.8 °F 28.4 °F 29% 30.11 in 10.0 mi Calm Calm - N/A   Clear
7:15 PM 57.2 °F 28.4 °F 33% 30.12 in 10.0 mi Calm Calm - N/A   Clear
7:35 PM 55.4 °F 28.4 °F 36% 30.12 in 10.0 mi Calm Calm - N/A   Clear
7:55 PM 55.4 °F 28.4 °F 36% 30.12 in 10.0 mi Calm Calm - N/A   Clear
8:15 PM 53.6 °F 28.4 °F 38% 30.12 in 10.0 mi Calm Calm - N/A   Clear
8:35 PM 51.8 °F 28.4 °F 41% 30.13 in 10.0 mi Calm Calm - N/A   Clear
8:55 PM 50.0 °F 28.4 °F 43% 30.13 in 10.0 mi Calm Calm - N/A   Clear
9:15 PM 50.0 °F 28.4 °F 43% 30.13 in 10.0 mi Calm Calm - N/A   Clear
9:35 PM 48.2 °F 26.6 °F 43% 30.13 in 10.0 mi Calm Calm - N/A   Clear
9:55 PM 48.2 °F 26.6 °F 43% 30.14 in 10.0 mi Calm Calm - N/A   Clear
10:15 PM 46.4 °F 28.4 °F 50% 30.15 in 10.0 mi Calm Calm - N/A   Clear
10:35 PM 46.4 °F 28.4 °F 50% 30.15 in 10.0 mi Calm Calm - N/A   Clear
10:55 PM 46.4 °F 28.4 °F 50% 30.15 in 10.0 mi Calm Calm - N/A   Clear
11:15 PM 46.4 °F 28.4 °F 50% 30.16 in 10.0 mi Calm Calm - N/A   Clear
11:35 PM 46.4 °F 26.6 °F 46% 30.16 in 10.0 mi Calm Calm - N/A   Clear
11:55 PM 46.4 °F 26.6 °F 46% 30.16 in 10.0 mi Calm Calm - N/A   Clear